Location: Beuvrequen
(50.8014°N, 1.6652°E)
Time: 20:42:25
(UTC+00:00)

CSL-04 Debris - Pass Details

Date: 16 October 2021
Orbit: 827 x 847 km, 98.9° (Epoch: 04 December)

Event Time Altitude Azimuth Distance (km) Brightness Sun altitude
Exits shadow 19:08:43 14° 166° (SSE) 2,168 6.1 -21.2°
Maximum altitude 19:13:27 83° 254° (WSW) 842 4.1 -22.0°
Drops below altitude 10° 19:18:54 10° 343° (NNW) 2,452 7.0 -22.8°
Sets 19:21:16 0° 345° (NNW) 3,392 7.7 -23.2°
